| time (UTC) | temp C | wind direction | speed KPH | gust KPH | rain 1hr cm | rain 24hr cm | rain mn cm | humidity % | barometer mb |
| 20260505083104 | 10 | 14 | 4.8 | 12.9 | 0.00 | 0.48 | 0.48 | 78 | 1007.0 |
| 20260505081602 | 9 | 3 | 6.4 | 11.3 | 0.00 | 0.48 | 0.48 | 82 | 1006.7 |
| 20260505080056 | 9 | 360 | 3.2 | 12.9 | 0.05 | 0.48 | 0.48 | 85 | 1006.5 |
| 20260505074553 | 9 | 11 | 4.8 | 12.9 | 0.18 | 0.48 | 0.48 | 87 | 1005.9 |
| 20260505073053 | 9 | 30 | 6.4 | 16.1 | 0.30 | 0.48 | 0.48 | 89 | 1005.8 |
| 20260505071547 | 9 | 22 | 8.0 | 17.7 | 0.36 | 0.48 | 0.48 | 89 | 1004.9 |
| 20260505070045 | 10 | 40 | 4.8 | 12.9 | 0.30 | 0.43 | 0.43 | 86 | 1006.9 |
| 20260505064540 | 11 | 356 | 3.2 | 14.5 | 0.20 | 0.30 | 0.30 | 80 | 1007.9 |
| 20260505063039 | 12 | 46 | 3.2 | 17.7 | 0.08 | 0.18 | 0.18 | 78 | 1007.6 |
| 20260505061539 | 13 | 301 | 4.8 | 22.5 | 0.08 | 0.13 | 0.13 | 70 | 1006.8 |
| 20260505060033 | 13 | 358 | 6.4 | 16.1 | 0.08 | 0.10 | 0.10 | 71 | 1005.6 |
| 20260505054534 | 13 | 2 | 3.2 | 12.9 | 0.10 | 0.10 | 0.10 | 78 | 1004.8 |
| 20260505053021 | 14 | 300 | 3.2 | 11.3 | 0.10 | 0.10 | 0.10 | 77 | 1004.6 |
| 20260505051516 | 16 | 1 | 6.4 | 16.1 | 0.05 | 0.05 | 0.05 | 68 | 1004.2 |
| 20260505041510 | 21 | 279 | 4.8 | 17.7 | 0.00 | 0.00 | 0.00 | 58 | 1003.0 |
| 20260505040009 | 20 | 259 | 3.2 | 9.7 | 0.00 | 0.00 | 0.00 | 73 | 1002.8 |
| 20260505034509 | 21 | 172 | 1.6 | 8.0 | 0.00 | 0.00 | 0.00 | 73 | 1002.4 |
| 20260505033016 | 21 | 172 | 3.2 | 8.0 | 0.00 | 0.00 | 0.00 | 73 | 1002.3 |
| 20260505031507 | 21 | 183 | 1.6 | 4.8 | 0.00 | 0.00 | 0.00 | 73 | 1002.3 |
| 20260505030007 | 21 | 185 | 1.6 | 6.4 | 0.00 | 0.00 | 0.00 | 72 | 1002.2 |
| 20260505024506 | 21 | 185 | 3.2 | 8.0 | 0.00 | 0.00 | 0.00 | 71 | 1001.9 |
| 20260505023006 | 21 | 193 | 3.2 | 8.0 | 0.00 | 0.00 | 0.00 | 69 | 1001.7 |
| 20260505021506 | 22 | 208 | 4.8 | 11.3 | 0.00 | 0.00 | 0.00 | 68 | 1001.5 |
| 20260505020005 | 22 | 169 | 6.4 | 11.3 | 0.00 | 0.00 | 0.00 | 69 | 1001.4 |
| 20260505014509 | 22 | 179 | 3.2 | 9.7 | 0.00 | 0.00 | 0.00 | 67 | 1001.2 |
| 20260505013003 | 23 | 179 | 0.0 | 6.4 | 0.00 | 0.00 | 0.00 | 63 | 1001.2 |
| 20260505011504 | 23 | 134 | 1.6 | 3.2 | 0.00 | 0.00 | 0.00 | 60 | 1000.9 |
| 20260505010002 | 23 | 22 | 1.6 | 4.8 | 0.00 | 0.00 | 0.00 | 60 | 1000.7 |
| 20260505004505 | 23 | 311 | 0.0 | 1.6 | 0.00 | 0.00 | 0.00 | 59 | 1000.6 |
| 20260505003002 | 24 | 232 | 0.0 | 1.6 | 0.00 | 0.00 | 0.00 | 57 | 1000.5 |
| 20260505001501 | 25 | 231 | 0.0 | 0.0 | 0.00 | 0.00 | 0.00 | 54 | 1000.5 |
| 20260505000104 | 25 | 229 | 0.0 | 1.6 | 0.00 | 0.00 | 0.00 | 57 | 1000.6 |
| 20260504234627 | 25 | 232 | 0.0 | 3.2 | 0.00 | 0.00 | 0.00 | 56 | 1000.6 |
| 20260504233059 | 25 | 229 | 1.6 | 4.8 | 0.00 | 0.00 | 0.00 | 54 | 1000.6 |
| 20260504231605 | 25 | 232 | 1.6 | 6.4 | 0.00 | 0.00 | 0.00 | 52 | 1000.7 |
| 20260504230057 | 26 | 216 | 3.2 | 9.7 | 0.00 | 0.00 | 0.00 | 51 | 1000.7 |
| 20260504224605 | 26 | 196 | 1.6 | 4.8 | 0.00 | 0.00 | 0.00 | 53 | 1000.7 |
| 20260504223056 | 26 | 194 | 4.8 | 11.3 | 0.00 | 0.00 | 0.00 | 51 | 1000.7 |
| 20260504221603 | 26 | 200 | 6.4 | 17.7 | 0.00 | 0.00 | 0.00 | 53 | 1000.6 |
| 20260504220055 | 26 | 205 | 8.0 | 16.1 | 0.00 | 0.00 | 0.00 | 50 | 1000.7 |
| 20260504214554 | 27 | 243 | 8.0 | 16.1 | 0.00 | 0.00 | 0.00 | 43 | 1000.8 |
| 20260504213101 | 27 | 231 | 6.4 | 16.1 | 0.00 | 0.00 | 0.00 | 48 | 1000.8 |
| 20260504211548 | 27 | 167 | 8.0 | 17.7 | 0.00 | 0.00 | 0.00 | 48 | 1001.0 |
| 20260504210054 | 26 | 240 | 6.4 | 16.1 | 0.00 | 0.00 | 0.00 | 50 | 1001.3 |
| 20260504204619 | 26 | 245 | 6.4 | 17.7 | 0.00 | 0.00 | 0.00 | 48 | 1001.4 |
| 20260504203042 | 26 | 250 | 6.4 | 12.9 | 0.00 | 0.00 | 0.00 | 49 | 1001.4 |
| 20260504201540 | 26 | 211 | 8.0 | 17.7 | 0.00 | 0.00 | 0.00 | 42 | 1001.5 |
| 20260504200041 | 26 | 245 | 9.7 | 19.3 | 0.00 | 0.00 | 0.00 | 45 | 1001.7 |
| 20260504194547 | 26 | 194 | 9.7 | 22.5 | 0.00 | 0.00 | 0.00 | 45 | 1001.8 |
| 20260504193039 | 26 | 201 | 11.3 | 20.9 | 0.00 | 0.00 | 0.00 | 46 | 1001.8 |
| 20260504191536 | 26 | 238 | 12.9 | 22.5 | 0.00 | 0.00 | 0.00 | 47 | 1001.8 |
| 20260504190037 | 26 | 204 | 11.3 | 17.7 | 0.00 | 0.00 | 0.00 | 44 | 1001.9 |
| 20260504184530 | 26 | 223 | 9.7 | 17.7 | 0.00 | 0.00 | 0.00 | 47 | 1001.9 |
| 20260504183029 | 26 | 259 | 8.0 | 17.7 | 0.00 | 0.00 | 0.00 | 50 | 1002.0 |
| 20260504181526 | 25 | 256 | 12.9 | 27.4 | 0.00 | 0.00 | 0.00 | 51 | 1002.1 |
| 20260504180024 | 25 | 210 | 8.0 | 22.5 | 0.00 | 0.00 | 0.00 | 54 | 1002.3 |
| 20260504174523 | 25 | 172 | 8.0 | 20.9 | 0.00 | 0.00 | 0.00 | 50 | 1002.3 |
| 20260504173022 | 24 | 246 | 12.9 | 25.7 | 0.00 | 0.00 | 0.00 | 51 | 1002.5 |
| 20260504171534 | 23 | 206 | 11.3 | 25.7 | 0.00 | 0.00 | 0.00 | 53 | 1002.6 |
| 20260504150105 | 21 | 236 | 16.1 | 32.2 | 0.00 | 0.00 | 0.00 | 58 | 1002.9 |